Overview Statistics Trail Chart Weather Telemetry Raw packets
 

This is the latest recevied weather packets stored in our database for station/object K7SKM. If no packets are shown the sender has not sent any weather packets the latest 10 day(s).

<< 64 65 66 67 68 69 70 >>
Time Temp. Humidity Pressure Rain* Wind** Luminosity Snow
1788230983 20.56° C 59% 1012.5 hPa 0 mm - 0 W/m² -
1788230678 21.11° C 58% 1012.6 hPa 0 mm - 1 W/m² -
1788230377 21.11° C 57% 1012.7 hPa 0 mm - 2 W/m² -
1788230071 21.67° C 57% 1012.6 hPa 0 mm - 5 W/m² -
1788229767 21.67° C 56% 1012.7 hPa 0 mm - 10 W/m² -
1788229462 21.67° C 56% 1012.7 hPa 0 mm - 17 W/m² -
1788229157 21.67° C 55% 1012.8 hPa 0 mm - 21 W/m² -
1788228853 21.67° C 56% 1012.8 hPa 0 mm - 21 W/m² -
1788228548 21.67° C 56% 1012.7 hPa 0 mm - 21 W/m² -
1788228243 22.22° C 55% 1012.7 hPa 0 mm - 24 W/m² -
1788227942 21.67° C 55% 1012.7 hPa 0 mm - 26 W/m² -
1788227639 21.67° C 55% 1012.6 hPa 0 mm - 24 W/m² -
1788227338 21.67° C 55% 1012.7 hPa 0 mm - 26 W/m² -
1788227034 22.22° C 55% 1012.6 hPa 0 mm - 24 W/m² -
1788226729 22.22° C 54% 1012.6 hPa 0 mm - 31 W/m² -
1788226425 22.22° C 54% 1012.8 hPa 0 mm - 37 W/m² -
1788226121 22.78° C 53% 1012.6 hPa 0 mm - 46 W/m² -
1788225816 22.78° C 53% 1012.7 hPa 0 mm - 64 W/m² -
1788225511 23.33° C 51% 1012.7 hPa 0 mm - 104 W/m² -
1788225206 23.33° C 51% 1012.7 hPa 0 mm - 190 W/m² -
1788224900 22.78° C 52% 1012.6 hPa 0 mm - 209 W/m² -
1788224594 22.78° C 52% 1012.6 hPa 0 mm - 210 W/m² -
1788224293 22.78° C 52% 1012.8 hPa 0 mm - 97 W/m² -
1788223989 22.78° C 51% 1012.6 hPa 0 mm - 81 W/m² -
1788223689 23.33° C 50% 1012.7 hPa 0 mm - 80 W/m² -

* Rain latest hour (hover to see other rain measurements)
** Current wind speed in m/s (hover to see current wind gust speed)